Regional Weather Roundup
Issued by NWS Charleston, SC

Current Version | Previous Version | Graphics & Text | Print | Product List | Glossary On
Versions: 1 2 3 4 5 6 7 8 9 10 11 12 13 14 15 16 17 18 19 20 21 22 23 24 25 26 27 28 29 30 31 32 33 34 35 36 37 38 39 40 41 42 43 44 45 46 47 48 49 50
350
ASUS42 KCHS 140613
RWRCHS

REGIONAL WEATHER ROUNDUP
NATIONAL WEATHER SERVICE CHARLESTON SC
100 AM EST SUN FEB 14 2016

NOTE: "FAIR" INDICATES FEW OR NO CLOUDS BELOW 12,000 FEET WITH NO
SIGNIFICANT WEATHER AND/OR OBSTRUCTIONS TO VISIBILITY.

NOT ALL STATIONS ARE QUALITY CONTROLLED BY THE NATIONAL
WEATHER SERVICE. USE DATA WITH CAUTION...ESPECIALLY
DEWPOINT OBSERVATIONS.

SCZ027-030-031-034>040-042>050-140700-
...SOUTHEAST SOUTH CAROLINA...

CITY           SKY/WX    TMP DP  RH WIND       PRES   REMARKS
N CHARLESTON   CLEAR     34  13  41 NE12      30.38S WCI  25
6HR MIN TEMP:  33; 6HR MAX TEMP:  42;

WATERFRONT PRK   N/A     38  21  50 NE12      30.22R WCI  30
MOUNT PLEASANT FAIR      34  18  51 N5        30.38S WCI  30
JOHNS ISLAND   FAIR      36  14  41 N10       30.37S WCI  28
PINOPOLIS        N/A     36  16  44 E16       30.29F WCI  26
MONCKS CORNER  FAIR      30   9  40 NE7       30.39S WCI  23
SUMMERVILLE    FAIR      34  14  44 NE5       30.40R WCI  30
BEAUFORT MCAS  CLEAR     38  21  50 NE13      30.35F WCI  30
6HR MIN TEMP:  34; 6HR MAX TEMP:  44;

BEAUFORT ARPT  FAIR      41  23  48 NE10G17   30.35S
HILTON HEAD IS CLEAR     39  30  70 N5        30.35F WCI  36
WALTERBORO     CLEAR     36  18  48 NE6       30.39R WCI  31
ALLENDALE      FAIR      34  16  47 CALM      30.36S

...SOUTHERN MIDLANDS AND PEE DEE...

CITY           SKY/WX    TMP DP  RH WIND       PRES   REMARKS
GEORGETOWN     FAIR      32   9  37 NE10G16   30.41R WCI  24
KINGSTREE      FAIR      30   9  40 CALM      30.42R
ORANGEBURG     CLEAR     32   9  38 NE8       30.39R WCI  25
6HR MIN TEMP:  32; 6HR MAX TEMP:  41;

BARNWELL       FAIR      34  16  47 NE7       30.38R WCI  28
AIKEN          FAIR      30  10  43 E6        30.39S WCI  24
MANNING        FAIR      30   9  40 NE6       30.41S WCI  24
COLUMBIA       CLEAR     31   3  30 NE8       30.40S WCI  23
6HR MIN TEMP:  29; 6HR MAX TEMP:  42;

SUMTER         CLEAR     25   9  50 NE8       30.39S WCI  16
6HR MIN TEMP:  25; 6HR MAX TEMP:  39;

FLORENCE       CLEAR     27   5  39 NE12      30.42S WCI  17
6HR MIN TEMP:  26; 6HR MAX TEMP:  37;

MYRTLE BEACH   CLEAR     28   7  40 NE8       30.43S WCI  20
N MYRTLE BEACH CLEAR     26  11  52 N5        30.41S WCI  20
6HR MIN TEMP:  26; 6HR MAX TEMP:  36;


$$

GAZ063-065-086>088-099>101-113>116-118-119-134>141-150-140700-
...SOUTHEAST GEORGIA...

CITY           SKY/WX    TMP DP  RH WIND       PRES   REMARKS
SAVANNAH ARPT  CLEAR     35  21  56 N5        30.35S WCI  31
6HR MIN TEMP:  34; 6HR MAX TEMP:  45;

HUNTER AAF     CLEAR     39  21  48 N3        30.31F
6HR MIN TEMP:  35; 6HR MAX TEMP:  47;

FORT STEWART   CLEAR     36  24  62 CALM      30.31F
6HR MIN TEMP:  33; 6HR MAX TEMP:  43;

STATESBORO     CLEAR     33  23  64 CALM      30.34F
SYLVANIA       CLEAR     32  31  95 CALM      30.36S
CLAXTON        FAIR      32  29  89 CALM      30.35F

...CSRA...CENTRAL AND FAR SOUTHEAST GEORGIA...

CITY           SKY/WX    TMP DP  RH WIND       PRES   REMARKS
THOMSON        CLEAR     31  20  63 NE7       30.41R WCI  25
AUGUSTA-BUSH   PTCLDY    31  15  52 NE7       30.37F WCI  24
6HR MIN TEMP:  28; 6HR MAX TEMP:  40;

AUGUSTA-DANIEL CLEAR     35   8  32 NE9       30.36S WCI  28
SWAINSBORO     FAIR      34  16  47 CALM      30.35F
VIDALIA        CLEAR     34  21  60 N5        30.34S WCI  30
EASTMAN        FAIR      31  19  60 CALM      30.37F
HAZLEHURST     FAIR      35  20  53 CALM      30.33F
ALMA           CLEAR     36  17  46 N3        30.34F
6HR MIN TEMP:  36; 6HR MAX TEMP:  46;

WAYCROSS       CLEAR     41  22  47 N3        30.34S
JESUP          FAIR      43  23  45 N3        30.34S
BAXLEY         FAIR      37  19  48 N3        30.34F
BRUNSWICK      CLEAR     36  36 100 CALM      30.34F
SAINT SIMONS   CLEAR     38  36  92 CALM      30.33S
6HR MIN TEMP:  38; 6HR MAX TEMP:  46;


$$

SCZ027-028-034-036>038-045-046-048>050-GAZ119-141-140700-
...LAKE AND SUPPLEMENTAL COASTAL OBSERVATIONS...

STATION/POSITION TIME  TEMP    WIND        PRES    WAVE   SWELL
                       AIR SEA DIR/SP/G            HT/PER HT/PER/DIR
                 (UTC) (F)     (DEG/KT/KT) (MB)    (FT/S) (FT/S/D)
WINYAH BAY       0445   33      20/  8     1028.0
LAKE MURRAY      0500   32      40/  3/  6 1028.8S
ACE BASIN NERRS  NOT AVBL
FORT PULASKI     0500   44 51   30/ 12/ 14 1027.6F
SAPELO ISLAND    0500   37        CALM     1027.0S

$$

ANZ835-935-AMZ111-154-330-350-352-354-370-450-454-472-140700-
...C-MAN AND BUOY OBSERVATIONS...

STATION/POSITION TIME  TEMP    WIND        PRES    WAVE   SWELL
                       AIR SEA DIR/SP/G            HT/PER HT/PER/DIR
                 (UTC) (F)     (DEG/KT/KT) (MB)    (FT/S) (FT/S/D)
BUOY 41004       0550   46 66   20/ 14/ 19 1027.2S   4/ 5   2/ 8
BUOY 41008       0550   49 53   50/  6/ 10 1027.1S   2/ 6   2/ 70/ 6
FOLLY BEACH CMAN 0600   40      40/ 17/ 19 1028.2F
CAPERS NEARSHORE 0508   41      40/ 17/ 23 1027.7F
FRIPP NEARSHORE  0500   46      70/ 16/ 17 1026.3F


STATION/POSITION TIME  TEMP    WIND        PRES    WAVE   SWELL
                       AIR SEA DIR/SP/G            HT/PER HT/PER/DIR
                 (UTC) (F)     (DEG/KT/KT) (MB)    (FT/S) (FT/S/D)
5E ST. MARYS GA  0521      55                N/A     2/ 6
FRYING PAN BUOY  0500   39 63  350/ 17/ 23 1028.8F
BUOY 41025       0550   33 72  350/ 19/ 29 1028.3R   6/ 5
CAPE LOOKOUT NC  NOT AVBL
BUOY 41002       0550   48 68  340/ 17/ 23   N/A     8/ 8   5/350/ 8
BUOY 41010       0520   61 72              1024.3F
ST AUGUSTINE FL  0600   52 57   10/ 16/ 17 1027.1F


$$




USA.gov is the U.S. government's official web portal to all federal, state and local government web resources and services.